Location: LDNL
(36.4545°S, 141.6685°E)
Time: 13:05:36
(UTC+11:00)

Courier 1B Rocket - Pass Details

Date: 01 February 2023
Orbit: 920 x 1202 km, 28.2° (Epoch: 25 March)

Event Time Altitude Azimuth Distance (km) Brightness Sun altitude
Rises 10:08:42 0° 277° (W) 4,092 7.8 38.5°
Reaches altitude 10° 10:11:45 10° 283° (WNW) 3,109 7.3 39.1°
Maximum altitude 10:18:53 41° 350° (N) 1,594 6.6 40.5°
Drops below altitude 10° 10:25:38 10° 58° (ENE) 2,942 8.5 41.8°
Sets 10:28:28 0° 64° (ENE) 3,852 8.9 42.4°
